Weather History for Columbia Airport, CA

Change the Weather History Date:

Wednesday, November 27, 2013

  Actual Average (KMOD) Record (KMOD)
Temperature  
Mean Temperature 52 °F -  
Max Temperature 66 °F 61 °F 74 °F (1959)
Min Temperature 39 °F 42 °F 28 °F (1952)
Degree Days  
Heating Degree Days 12 14  
Month to date heating degree days 255  
Since 1 July heating degree days 318  
Cooling Degree Days 0 0  
Month to date cooling degree days 0  
Year to date cooling degree days 1696  
Growing Degree Days 2 (Base 50)    
Moisture  
Dew Point 33 °F    
Average Humidity 56    
Maximum Humidity 76    
Minimum Humidity 26    
Precipitation  
Precipitation 0.00 in 0.05 in 0.52 in (1998)
Month to date precipitation 1.20  
Year to date precipitation 10.91  
Since 1 July precipitation 2.16  
Snow  
Snow 0.00 in - 0.00 in (2002)
Month to date snowfall  
Since 1 July snowfall  
Since 1 September snowfall  
Snow Depth -    
Sea Level Pressure  
Sea Level Pressure 29.96 in    
Wind  
Wind Speed 1 mph (South)    
Max Wind Speed 6 mph    
Max Gust Speed -    
Visibility 10 miles    
Events      
T = Trace of Precipitation, MM = Missing Value Source: NWS Daily Summary

Daily Weather History Graph

Daily Weather History Graph

Search for Another Location

Airport:

Trip Planner

Search our weather history database for the weather conditions in past years. The results will help you decide how hot, cold, wet, or windy it might be!

Date:

Astronomy

Nov. 27, 2013 Rise Set
Actual Time 6:55 AM PST 4:43 PM PST
Civil Twilight 6:26 AM PST 5:12 PM PST
Nautical Twilight 5:54 AM PST 5:44 PM PST
Astronomical Twilight 5:22 AM PST 6:16 PM PST
Moon 1:07 AM PST (11/27) 1:18 PM PST (11/27)
Length of Visible Light 10h 45m
Length of Day
9h 47m
Waning Crescent, 30% of the Moon is Illuminated
Nov 27
Waning Crescent
Dec 2
New
Dec 9
First Quarter
Dec 17
Full
Dec 25
Last Quarter

Hourly Weather History & Observations

Time (PST) Temp. Dew Point Humidity Pressure Visibility Wind Dir Wind Speed Gust Speed Precip Events Conditions
12:15 AM 41.0 °F 32.0 °F 70% 30.07 in 10.0 mi Calm Calm - N/A   Clear
12:35 AM 41.0 °F 32.0 °F 70% 30.07 in 10.0 mi Calm Calm - N/A   Clear
12:55 AM 41.0 °F 32.0 °F 70% 30.06 in 10.0 mi Calm Calm - N/A   Clear
1:15 AM 39.2 °F 32.0 °F 75% 30.06 in 10.0 mi Calm Calm - N/A   Clear
1:35 AM 39.2 °F 32.0 °F 75% 30.06 in 10.0 mi Calm Calm - N/A   Clear
1:55 AM 41.0 °F 32.0 °F 70% 30.05 in 10.0 mi Calm Calm - N/A   Clear
2:15 AM 41.0 °F 32.0 °F 70% 30.05 in 10.0 mi Calm Calm - N/A   Clear
2:35 AM 41.0 °F 32.0 °F 70% 30.05 in 10.0 mi Calm Calm - N/A   Clear
2:55 AM 41.0 °F 32.0 °F 70% 30.05 in 10.0 mi Calm Calm - N/A   Clear
3:15 AM 41.0 °F 32.0 °F 70% 30.04 in 10.0 mi Calm Calm - N/A   Clear
3:35 AM 41.0 °F 32.0 °F 70% 30.04 in 10.0 mi Calm Calm - N/A   Clear
3:55 AM 39.2 °F 32.0 °F 75% 30.03 in 10.0 mi Calm Calm - N/A   Clear
4:15 AM 39.2 °F 32.0 °F 75% 30.03 in 10.0 mi Calm Calm - N/A   Clear
4:35 AM 39.2 °F 32.0 °F 75% 30.02 in 10.0 mi Calm Calm - N/A   Clear
4:55 AM 39.2 °F 32.0 °F 75% 30.02 in 10.0 mi Calm Calm - N/A   Clear
5:15 AM 39.2 °F 32.0 °F 75% 30.01 in 10.0 mi Calm Calm - N/A   Clear
5:35 AM 39.2 °F 32.0 °F 75% 30.01 in 10.0 mi Calm Calm - N/A   Clear
5:55 AM 39.2 °F 32.0 °F 75% 30.00 in 10.0 mi Calm Calm - N/A   Clear
6:15 AM 39.2 °F 32.0 °F 75% 30.00 in 10.0 mi Calm Calm - N/A   Clear
6:35 AM 39.2 °F 32.0 °F 75% 30.00 in 10.0 mi Calm Calm - N/A   Clear
6:55 AM 41.0 °F 32.0 °F 70% 30.00 in 10.0 mi Calm Calm - N/A   Clear
7:15 AM 41.0 °F 32.0 °F 70% 30.00 in 10.0 mi Calm Calm - N/A   Clear
7:35 AM 44.6 °F 35.6 °F 71% 30.00 in 10.0 mi Calm Calm - N/A   Clear
7:55 AM 48.2 °F 37.4 °F 66% 30.00 in 10.0 mi Calm Calm - N/A   Clear
8:15 AM 50.0 °F 37.4 °F 62% 30.00 in 10.0 mi Calm Calm - N/A   Clear
8:35 AM 53.6 °F 37.4 °F 54% 30.00 in 10.0 mi Calm Calm - N/A   Clear
8:55 AM 59.0 °F 32.0 °F 36% 30.00 in 10.0 mi Calm Calm - N/A   Clear
9:15 AM 60.8 °F 32.0 °F 34% 30.00 in 10.0 mi SSE 3.5 mph - N/A   Clear
9:35 AM 62.6 °F 32.0 °F 32% 29.99 in 10.0 mi SSE 4.6 mph - N/A   Clear
9:55 AM 62.6 °F 32.0 °F 32% 29.99 in 10.0 mi South 4.6 mph - N/A   Clear
10:15 AM 62.6 °F 32.0 °F 32% 29.99 in 10.0 mi SSE 3.5 mph - N/A   Clear
10:35 AM 62.6 °F 32.0 °F 32% 29.98 in 10.0 mi SSE 4.6 mph - N/A   Clear
10:55 AM 62.6 °F 32.0 °F 32% 29.97 in 10.0 mi South 4.6 mph - N/A   Clear
11:15 AM 66.2 °F 32.0 °F 28% 29.96 in 10.0 mi SSE 5.8 mph - N/A   Clear
11:35 AM 64.4 °F 30.2 °F 28% 29.95 in 10.0 mi SE 3.5 mph - N/A   Clear
11:55 AM 66.2 °F 30.2 °F 26% 29.95 in 10.0 mi SSW 4.6 mph - N/A   Clear
12:15 PM 64.4 °F 32.0 °F 30% 29.94 in 10.0 mi South 4.6 mph - N/A   Clear
12:35 PM 64.4 °F 32.0 °F 30% 29.93 in 10.0 mi South 3.5 mph - N/A   Clear
12:55 PM 64.4 °F 32.0 °F 30% 29.92 in 10.0 mi South 3.5 mph - N/A   Clear
1:15 PM 64.4 °F 32.0 °F 30% 29.92 in 10.0 mi SSW 3.5 mph - N/A   Clear
1:35 PM 64.4 °F 32.0 °F 30% 29.91 in 10.0 mi SW 4.6 mph - N/A   Clear
1:55 PM 64.4 °F 32.0 °F 30% 29.90 in 10.0 mi WSW 3.5 mph - N/A   Clear
2:15 PM 64.4 °F 32.0 °F 30% 29.90 in 10.0 mi Calm Calm - N/A   Clear
2:35 PM 64.4 °F 32.0 °F 30% 29.90 in 10.0 mi Calm Calm - N/A   Clear
2:55 PM 64.4 °F 32.0 °F 30% 29.89 in 10.0 mi Calm Calm - N/A   Clear
3:15 PM 64.4 °F 30.2 °F 28% 29.89 in 10.0 mi Calm Calm - N/A   Clear
3:35 PM 64.4 °F 32.0 °F 30% 29.89 in 10.0 mi Calm Calm - N/A   Clear
3:55 PM 62.6 °F 32.0 °F 32% 29.89 in 10.0 mi Calm Calm - N/A   Clear
4:15 PM 59.0 °F 32.0 °F 36% 29.89 in 10.0 mi Calm Calm - N/A   Clear
4:35 PM 57.2 °F 35.6 °F 44% 29.89 in 10.0 mi Calm Calm - N/A   Clear
4:55 PM 53.6 °F 35.6 °F 51% 29.89 in 10.0 mi Calm Calm - N/A   Clear
5:15 PM 53.6 °F 35.6 °F 51% 29.89 in 10.0 mi Calm Calm - N/A   Clear
5:35 PM 50.0 °F 35.6 °F 58% 29.89 in 10.0 mi Calm Calm - N/A   Clear
5:55 PM 50.0 °F 37.4 °F 62% 29.89 in 10.0 mi Calm Calm - N/A   Clear
6:15 PM 50.0 °F 37.4 °F 62% 29.89 in 10.0 mi Calm Calm - N/A   Clear
6:35 PM 50.0 °F 35.6 °F 58% 29.89 in 10.0 mi Calm Calm - N/A   Clear
6:55 PM 48.2 °F 35.6 °F 62% 29.89 in 10.0 mi Calm Calm - N/A   Clear
7:15 PM 48.2 °F 35.6 °F 62% 29.89 in 10.0 mi Calm Calm - N/A   Clear
7:35 PM 46.4 °F 35.6 °F 66% 29.90 in 10.0 mi Calm Calm - N/A   Clear
7:55 PM 44.6 °F 35.6 °F 71% 29.90 in 10.0 mi Calm Calm - N/A   Clear
8:15 PM 44.6 °F 35.6 °F 71% 29.90 in 10.0 mi Calm Calm - N/A   Clear
8:35 PM 44.6 °F 35.6 °F 71% 29.90 in 10.0 mi Calm Calm - N/A   Clear
8:55 PM 44.6 °F 33.8 °F 66% 29.90 in 10.0 mi Calm Calm - N/A   Clear
9:15 PM 44.6 °F 33.8 °F 66% 29.90 in 10.0 mi Calm Calm - N/A   Clear
9:35 PM 42.8 °F 32.0 °F 66% 29.90 in 10.0 mi Calm Calm - N/A   Clear
9:55 PM 42.8 °F 33.8 °F 70% 29.90 in 10.0 mi Calm Calm - N/A   Clear
10:15 PM 42.8 °F 33.8 °F 70% 29.91 in 10.0 mi Calm Calm - N/A   Clear
10:35 PM 42.8 °F 33.8 °F 70% 29.91 in 10.0 mi Calm Calm - N/A   Clear
10:55 PM 42.8 °F 33.8 °F 70% 29.91 in 10.0 mi Calm Calm - N/A   Clear
11:15 PM 41.0 °F 33.8 °F 76% 29.91 in 10.0 mi Calm Calm - N/A   Clear
11:35 PM 42.8 °F 33.8 °F 70% 29.91 in 10.0 mi Calm Calm - N/A   Clear
11:55 PM 41.0 °F 33.8 °F 76% 29.91 in 10.0 mi Calm Calm - N/A   Clear